User: anonymous   Login
Location: Berg
(47.2344°N, 9.5296°E)
Time: 05:25:50
(UTC+00:00)
Language:

CAS-6 - Orbit

View from above orbital plane
View from above orbital plane
View from above satellite
View from above satellite

Ground track
Ground track

The orbit data is extracted from the following two-line orbital elements,

1 44881U 19093C   21338.80608126  .00000207  00000-0  33039-4 0  9996
2 44881  97.9127  55.6679 0016492  98.3938 261.9145 14.81518425105959
Epoch (UTC): 04 December 2021 19:20:45
Eccentricity: 0.0016492
inclination: 97.9127°
perigee height: 613 km
apogee height: 636 km
right ascension of ascending node: 55.6679°
argument of perigee: 98.3938°
revolutions per day: 14.81518425
mean anomaly at epoch: 261.9145°
orbit number at epoch: 10595

The dashed part of the orbit path shows where the satellite is in the earth's shadow,  

DLR